STARLINK-11665, 63549

Orbit data source: Space-Track

STARLINK-11665, 63549 is a payload satellite owned by SpaceX/Seattle (US) in LEO that was launched on Sun, 13 Apr 2025 UTC via an FALCON 9 launch vehicle from the Air Force Eastern Test Range (AFETR). Payload-class satellites include a variety of spacecraft equipped with specific instruments for various scientific and technological missions. These include communications satellites like Starlink; space stations such as the ISS; scientific satellites like the Hubble; Earth observation satellites from companies like Planet Labs, Umbra, and HawkEye 360; GPS; miniature CubeSats for education and research; and military/defense satellites.

Loading next visibility...
Identifier
63549, 2025-075B
Orbit
LEO
Last TLE update
15 hours ago
Origin
Manufacturer
SpaceX/Seattle
Mission
Operational spacecraft
Bus & Motor
STARLINK V2M, Unknown motor
Mass
730 kg wet, ~700 kg dry
Launch date (UTC)
2025-04-13 (3 weeks ago)
Launch vehicle
FALCON 9
Launch site
Air Force Eastern Test Range (AFETR)
Object type
Payload
Rocket body
Debris
Shape & HBR
Unknown
Radar Cross Section
Large (>1 m²)

Expand to show TLE details & history

TLE from 15 hours ago
0 STARLINK-11665
1 63549U 25075B   25125.70686465 -.00000606  00000-0 -60623-6 0  9990
2 63549  42.9995 212.6778 0003096 272.4490  87.6026 15.77853267  4785
Epoch: 2025-05-05T16:57Z
Definitive object data (Epoch: 2025-05-05T16:57:53.105Z)
Latitude
-0.00001°
Longitude
94.38995°
Altitude
336.208 km
Speed
7.709 km/s
True Right ascension
14h 10m 42s
True Declination
0° 00' 00"
Sunlit
Object was in full shadow at TLE epoch
Visualization TLE readout
Latitude
-36.01085°
Longitude
-38.52713°
Altitude
345.257 km
Speed
7.703 km/s
Apparent Right ascension
04h 30m 17s
Apparent Declination
-38° 26' 15"
Sunlit
Object is in daylight
Visualization observer readout
Local Sidereal Time
15:35:59
Azimuth
273.663° WNW
Elevation
-79.386°
Doppler factor
1
Orbital elements
Apogee altitude
340.591 km
Perigee altitude
336.432 km
Semi-major axis
6,716.649 km
Eccentricity
0.0003096
Inclination
42.9995°
RAAN
212.6778°
Arg. of periapsis
272.449°
True anomaly
87.63805°
Mean anomaly
87.6026°
Eccentric anomaly
87.62032°
Mean motion
3.94289 °/min
BSTAR
-6.0623e-7
Orbital period
91.3 mins
Loading maneuver chart data...
Loading SW <> Apogee altitude chart data...
Loading historical data...
Loading historical data...
Loading historical data...
Loading historical data...
Loading historical data...
Loading historical data...
Loading historical data...

STARLINK-11665 Visibility forecast

Observer location: undefined°, undefined°

Span
Click to sort rows by Start time (UTC) header in descending order
Start Az.
Max El. time (UTC)
Max El. Az.
Max El.
End time (UTC)
End Az.
4 mins2025-05-06 11:31:47.384Z291.496° WNW2025-05-06 11:33:47.384Z17.595° NNE33.036°2025-05-06 11:35:47.384Z67.637° E
4 mins2025-05-06 13:07:47.384Z297.334° NW2025-05-06 13:09:47.384Z61.929° ENE38.344°2025-05-06 13:11:47.384Z95.117° ESE
|